This is the latest recevied weather packets stored in our database for station/object KO4FR. If no packets are shown the sender has not sent any weather packets the latest 10 day(s).
| Time | Temp. | Humidity | Pressure | Rain* | Wind** | Luminosity | Snow |
|---|---|---|---|---|---|---|---|
| 1778181614 | 12.22° C | 14% | 1011.1 hPa | 0 mm | - | - | - |
| 1778181314 | 12.22° C | 13% | 1011 hPa | 0 mm | - | - | - |
| 1778180984 | 12.22° C | 13% | 1011 hPa | 0.25 mm | - | - | - |
| 1778180714 | 12.22° C | 13% | 1011.3 hPa | 0.25 mm | - | - | - |
| 1778180414 | 12.22° C | 9% | 1011 hPa | 0.51 mm | - | - | - |
| 1778180114 | 12.22° C | 7% | 1010.9 hPa | 0.51 mm | - | - | - |
| 1778179814 | 12.22° C | 8% | 1010.9 hPa | 0.51 mm | - | - | - |
| 1778179514 | 12.22° C | 6% | 1011.1 hPa | 0.51 mm | - | - | - |
| 1778179214 | 12.22° C | 3% | 1011.2 hPa | 0.51 mm | - | - | - |
| 1778178914 | 11.67° C | 4% | 1011.2 hPa | 0.51 mm | - | - | - |
| 1778178614 | 11.67° C | 4% | 1011.3 hPa | 0.51 mm | - | - | - |
| 1778178284 | 11.67° C | 3% | 1011.3 hPa | 0.51 mm | - | - | - |
| 1778177984 | 11.67° C | 3% | 1011.3 hPa | 0.51 mm | - | - | - |
| 1778177714 | 11.67° C | 5% | 1011.5 hPa | 0.76 mm | - | - | - |
| 1778177414 | 11.67° C | 5% | 1011.2 hPa | 0.51 mm | - | - | - |
| 1778177114 | 11.67° C | 3% | 1011.2 hPa | 0.51 mm | - | - | - |
| 1778176814 | 11.67° C | 3% | 1011.4 hPa | 0.25 mm | - | - | - |
| 1778176513 | 11.67° C | 4% | 1011.5 hPa | 0.51 mm | - | - | - |
| 1778176214 | 11.67° C | 5% | 1011.4 hPa | 0.51 mm | - | - | - |
| 1778175914 | 11.67° C | 6% | 1011.6 hPa | 0.51 mm | - | - | - |
| 1778175614 | 11.67° C | 4% | 1011.5 hPa | 0.51 mm | - | - | - |
| 1778175314 | 11.67° C | 5% | 1011.4 hPa | 0.51 mm | - | - | - |
| 1778175014 | 11.67° C | 5% | 1011.3 hPa | 0.51 mm | - | - | - |
| 1778174714 | 11.67° C | 4% | 1011.4 hPa | 0.51 mm | - | - | - |
| 1778174384 | 11.67° C | 6% | 1011.4 hPa | 0.51 mm | - | - | - |
* Rain latest hour (hover to see other rain measurements)
** Current wind speed in m/s (hover to see current wind gust speed)